クリステンセン彗星

266P/Christensen (2007)

English version
Home page
Updated on November 4, 2020

---------------------------------------------------------------------

・ プロフィール

符号 266P/2006 U5
発見日 2006年10月27日
発見光度 18.0等
発見者 E. J. Christensen (Catalina Sky Survey)

・ 軌道要素

Epoch 2007 Jan. 20.0 TT = JDT 2454120.5
T 2007 Jan. 18.90738 TT                                 MPC
q   2.3258754            (2000.0)            P               Q
n   0.14862505     Peri.   98.38141     -0.23303004     -0.97245497
a   3.5297291      Node     5.10341     +0.86702224     -0.21023763
e   0.3410612      Incl.    3.43031     +0.44041961     -0.10065519
P   6.63
From 521 observations 2006 Oct. 27-2014 May 2, mean residual 0".8.
     Nongravitational parameters A1 = +0.46, A2 = -0.2725.

・ 星図

・ 光度変化

        m1 = 12.5 + 5 logΔ + 10.0 log r

---------------------------------------------------------------------

軌道要素はM.P.E.C. 2014-V27に掲載されたものです。
星図は StellaNavigator Ver.2.0 for Windows (アストロアーツ 編著 / アスキー出版局刊) で作成したものです。
光度グラフはComet for Windowsで作成したものです。

---------------------------------------------------------------------

Copyright(C) Seiichi Yoshida (comet@aerith.net). All rights reserved.